Location: PACMO
(41.3967°N, 90.3760°W)
Time: 12:03:16
(UTC-06:00)

Amateur Radio Satellites - All Passes

Search period start: 28 November 2014 11:33
Search period end: 29 November 2014 11:33
Location: PACMO, 41.3967°N, 90.3760°W

Satellite Date Start Highest point End Downlink Frequencies (MHz)
Time Altitude Azimuth
TISAT 1 28 Nov 11:36:08 11:39:47 28° 96° (E) 11:43:24 437.305
ZACube-1 28 Nov 11:36:35 11:39:15 16° 295° (WNW) 11:41:57 437.345
POPSAT HIP 1 28 Nov 11:37:47 11:38:26 10° 270° (W) 11:39:06 437.405
VELOX 1 28 Nov 11:46:39 11:50:01 22° 294° (WNW) 11:53:23 145.980
SPROUT 28 Nov 11:53:58 11:58:01 40° 98° (E) 12:02:02 437.525
ESTCUBE 1 28 Nov 11:53:59 11:58:19 44° 289° (WNW) 12:02:36 437.505/2401.250
ITAMSAT 1 28 Nov 11:54:15 11:56:29 13° 59° (ENE) 11:58:44 435.822/435.867
50 SAT 28 Nov 12:06:58 12:09:05 14° 296° (WNW) 12:11:12 437.505
SWISSCUBE 28 Nov 12:11:26 12:12:56 11° 89° (E) 12:14:26 437.505
AISAT 28 Nov 12:16:13 12:17:41 12° 299° (WNW) 12:19:08 437.250
CUBEBUG 1 28 Nov 12:17:17 12:20:54 26° 292° (WNW) 12:24:29 437.445
CUSAT 1 28 Nov 12:22:07 12:24:40 46° 97° (E) 12:27:13 437.405
YUBILEINY 28 Nov 12:28:26 12:36:31 40° 72° (ENE) 12:44:31 435.215
Oscar 19 28 Nov 12:31:03 12:36:07 67° 73° (ENE) 12:41:12 437.125/150
BEESAT 28 Nov 12:40:04 12:43:45 22° 94° (E) 12:47:24 436.000
Gurwin Techsat 1B 28 Nov 12:40:13 12:43:58 20° 63° (ENE) 12:47:43 435.225
SO-50 28 Nov 12:41:03 12:45:22 32° 246° (WSW) 12:49:40 436.795
AUBIESAT-1 28 Nov 12:55:45 13:00:05 31° 100° (E) 13:04:16 437.475
DANDE 28 Nov 13:00:01 13:02:37 43° 282° (WNW) 13:05:08 436.750
M-CUBED/EXP-1 PRIME 28 Nov 13:02:43 13:07:21 39° 102° (ESE) 13:11:49 437.505
TISAT 1 28 Nov 13:12:07 13:15:31 24° 292° (WNW) 13:18:54 437.305
ITAMSAT 1 28 Nov 13:30:00 13:35:13 88° 256° (WSW) 13:40:28 435.822/435.867
SPROUT 28 Nov 13:30:52 13:33:49 18° 294° (WNW) 13:36:45 437.525
VERMONT LUNAR 28 Nov 13:34:19 13:37:41 38° 159° (SSE) 13:41:04 437.305
PHONESAT 2.4 28 Nov 13:34:34 13:37:50 30° 156° (SSE) 13:41:07 2401.200-2431.200
ITUPSAT 1 28 Nov 13:36:38 13:41:28 80° 103° (ESE) 13:46:15 437.325
O/OREOS (USA 219) 28 Nov 13:45:30 13:47:43 13° 52° (NE) 13:49:56 437.305
SWISSCUBE 28 Nov 13:46:32 13:51:20 75° 285° (WNW) 13:56:05 437.505
KKS-1 28 Nov 13:59:34 14:03:26 29° 96° (E) 14:07:17 437.445
RS-15 28 Nov 14:04:29 14:12:55 27° 103° (ESE) 14:21:17 29.354- 29.394
Oscar 19 28 Nov 14:13:15 14:15:55 14° 270° (W) 14:18:37 437.125/150
AO-7 28 Nov 14:14:15 14:21:44 40° 60° (ENE) 14:29:15 29.400- 29.500
HORYU 2 28 Nov 14:16:00 14:20:23 65° 74° (ENE) 14:24:47 437.375
BEESAT 28 Nov 14:17:15 14:21:44 40° 290° (WNW) 14:26:10 436.000
Gurwin Techsat 1B 28 Nov 14:18:17 14:23:29 56° 260° (W) 14:28:43 435.225
YUBILEINY 28 Nov 14:25:16 14:33:21 45° 272° (W) 14:41:23 435.215
AUBIESAT-1 28 Nov 14:30:38 14:34:59 32° 297° (WNW) 14:39:13 437.475
M-CUBED/EXP-1 PRIME 28 Nov 14:38:05 14:42:09 26° 299° (WNW) 14:46:08 437.505
MaSat-1 28 Nov 14:48:46 14:51:28 35° 298° (WNW) 14:53:58 437.345
STARS 28 Nov 14:49:08 14:53:31 68° 102° (ESE) 14:57:54 437.465
VERMONT LUNAR 28 Nov 15:12:21 15:15:58 77° 176° (S) 15:19:36 437.305
PHONESAT 2.4 28 Nov 15:12:40 15:16:22 72° 172° (S) 15:20:05 2401.200-2431.200
ITUPSAT 1 28 Nov 15:16:44 15:18:41 12° 300° (WNW) 15:20:38 437.325
O/OREOS (USA 219) 28 Nov 15:23:10 15:27:38 70° 250° (WSW) 15:32:05 437.305
JAS-2 28 Nov 15:29:50 15:36:51 40° 65° (ENE) 15:43:57 435.910
KKS-1 28 Nov 15:36:17 15:39:59 26° 292° (WNW) 15:43:40 437.445
HORYU 2 28 Nov 15:55:58 15:57:29 12° 270° (W) 15:59:01 437.375
AO-7 28 Nov 16:06:23 16:14:18 49° 259° (W) 16:22:20 29.400- 29.500
RS-15 28 Nov 16:13:01 16:24:00 80° 304° (NW) 16:35:01 29.354- 29.394
STARS 28 Nov 16:27:40 16:29:27 12° 298° (WNW) 16:31:13 437.465
Cubesat XI-IV 28 Nov 16:31:58 16:36:26 28° 65° (ENE) 16:40:54 437.490
VERMONT LUNAR 28 Nov 16:50:48 16:54:22 60° 193° (SSW) 16:57:57 437.305
PHONESAT 2.4 28 Nov 16:51:24 16:55:07 69° 189° (S) 16:58:48 2401.200-2431.200
MOZHAYETS 4 28 Nov 17:00:22 17:05:03 73° 102° (ESE) 17:09:41
PRISM 28 Nov 17:11:21 17:13:53 15° 92° (E) 17:16:24 437.425
CUTE-I 28 Nov 17:11:32 17:16:48 60° 72° (ENE) 17:22:04 437.470
JAS-2 28 Nov 17:14:17 17:21:38 48° 263° (W) 17:29:11 435.910
Cubesat XI-IV 28 Nov 18:11:19 18:16:19 39° 262° (W) 18:21:21 437.490
GONETS M04 28 Nov 18:18:59 18:27:23 45° 74° (ENE) 18:35:40
AIST 1 28 Nov 18:24:25 18:27:48 22° 88° (E) 18:31:12
RS-15 28 Nov 18:29:13 18:38:20 29° 332° (NNW) 18:47:36 29.354- 29.394
VERMONT LUNAR 28 Nov 18:29:42 18:32:28 21° 209° (SSW) 18:35:13 437.305
PHONESAT 2.4 28 Nov 18:30:25 18:33:37 27° 205° (SSW) 18:36:48 2401.200-2431.200
PCSat 28 Nov 18:32:58 18:38:09 49° 113° (ESE) 18:43:22 145.827
AIST 2 28 Nov 18:37:52 18:39:25 12° 107° (ESE) 18:40:58 435.215
MOZHAYETS 4 28 Nov 18:39:37 18:41:39 13° 299° (WNW) 18:43:41
PRISM 28 Nov 18:45:37 18:49:40 44° 288° (WNW) 18:53:40 437.425
CUBESAT XI-V 28 Nov 18:50:07 18:54:47 75° 102° (ESE) 18:59:24 437.345
STRAND 1 28 Nov 18:53:28 18:58:35 70° 102° (ESE) 19:03:38 437.568
CUTE-I 28 Nov 18:53:47 18:57:15 17° 268° (W) 19:00:44 437.470
BEESAT 3 28 Nov 19:07:27 19:11:27 56° 119° (ESE) 19:15:32 437.485
CUTE 1.7 + AOD 2 28 Nov 19:08:54 19:11:41 17° 65° (ENE) 19:14:29 437.475
HO-68 28 Nov 19:10:21 19:16:54 40° 64° (ENE) 19:23:28 435.675
BEESAT 2 28 Nov 19:25:17 19:29:24 79° 121° (ESE) 19:33:35 435.950
DOVE 4 28 Nov 19:30:42 19:33:32 17° 66° (ENE) 19:36:18 437.250
BRITE-PL 28 Nov 19:30:57 19:35:17 33° 71° (ENE) 19:39:19 437.365/2234.400
SEEDS 28 Nov 19:37:02 19:40:41 30° 70° (ENE) 19:44:21 437.485
DELFI C3 28 Nov 19:41:01 19:41:35 10° 62° (ENE) 19:42:09 145.870
CINEMA 3 28 Nov 19:44:57 19:47:09 14° 64° (ENE) 19:49:19 145.822/145.860
UKube-1 28 Nov 19:47:30 19:49:58 15° 63° (ENE) 19:52:26 .
AAUSAT CUBESAT 2 28 Nov 19:47:45 19:51:20 29° 69° (ENE) 19:54:58 437.432
Oscar 11 28 Nov 19:55:45 19:58:50 20° 66° (ENE) 20:01:55 145.826/435.025
AIST 1 28 Nov 20:01:21 20:05:16 31° 285° (WNW) 20:09:13
COMPASS 1 28 Nov 20:04:41 20:08:43 51° 73° (ENE) 20:12:47 437.405
CANX-2 28 Nov 20:08:45 20:12:58 87° 76° (ENE) 20:17:14 2200.000
AIST 2 28 Nov 20:13:14 20:17:27 68° 304° (NW) 20:21:44 435.215
GONETS M04 28 Nov 20:16:04 20:24:03 40° 274° (W) 20:31:59
PCSat 28 Nov 20:17:15 20:21:48 27° 312° (NW) 20:26:23 145.827
DX 1 28 Nov 20:24:21 20:28:21 36° 70° (ENE) 20:32:23 434.975-435.025
GOMX 1 28 Nov 20:24:37 20:29:20 84° 76° (ENE) 20:33:45 467.674
UWE-3 28 Nov 20:28:24 20:31:36 22° 68° (ENE) 20:34:47 435.000/436.395/437.385
CUBESAT XI-V 28 Nov 20:29:42 20:31:35 12° 299° (WNW) 20:33:28 437.345
CUBEBUG 2 28 Nov 20:34:08 20:37:46 28° 70° (ENE) 20:41:21 437.445
STRAND 1 28 Nov 20:34:16 20:37:10 15° 300° (WNW) 20:40:03 437.568
CUTE 1.7 + AOD 2 28 Nov 20:43:19 20:47:17 41° 262° (W) 20:51:19 437.475
BEESAT 3 28 Nov 20:47:11 20:50:01 18° 317° (NW) 20:52:53 437.485
RS-15 28 Nov 20:47:59 20:55:48 21° 8° (N) 21:03:48 29.354- 29.394
ZACube-1 28 Nov 20:55:49 20:59:39 36° 71° (ENE) 21:03:28 437.345
HO-68 28 Nov 20:57:51 21:04:32 41° 262° (W) 21:11:16 435.675
BEESAT 2 28 Nov 21:05:59 21:08:14 14° 320° (NW) 21:10:31 435.950
DOVE 4 28 Nov 21:06:39 21:11:01 46° 261° (W) 21:15:11 437.250
VELOX 1 28 Nov 21:07:44 21:11:45 33° 69° (ENE) 21:15:46 145.980
BRITE-PL 28 Nov 21:09:44 21:13:48 26° 264° (W) 21:17:38 437.365/2234.400
DELFI C3 28 Nov 21:12:14 21:16:17 71° 258° (WSW) 21:20:23 145.870
SEEDS 28 Nov 21:13:12 21:16:31 23° 266° (W) 21:19:52 437.485
ESTCUBE 1 28 Nov 21:18:34 21:21:36 18° 64° (ENE) 21:24:39 437.505/2401.250
50 SAT 28 Nov 21:19:31 21:23:06 32° 71° (ENE) 21:26:43 437.505
CINEMA 3 28 Nov 21:19:43 21:23:58 53° 260° (W) 21:28:07 145.822/145.860
UKube-1 28 Nov 21:21:26 21:25:41 54° 259° (W) 21:29:58 .
AAUSAT CUBESAT 2 28 Nov 21:23:43 21:27:01 23° 266° (W) 21:30:21 437.432
FUNcube-1 28 Nov 21:29:35 21:33:46 88° 79° (E) 21:37:57 145.935
Oscar 11 28 Nov 21:30:44 21:34:44 38° 262° (W) 21:38:46 145.826/435.025
AISAT 28 Nov 21:35:27 21:39:53 68° 74° (ENE) 21:44:20 437.250
CUBEBUG 1 28 Nov 21:37:34 21:41:13 26° 68° (ENE) 21:44:52 437.445
ISS 28 Nov 21:37:52 21:40:43 28° 135° (SE) 21:43:35 145.825
COMPASS 1 28 Nov 21:42:47 21:44:45 13° 269° (W) 21:46:44 437.405
POPSAT HIP 1 28 Nov 21:46:14 21:47:10 11° 90° (E) 21:48:06 437.405
HUMSAT D 28 Nov 21:51:17 21:55:24 86° 257° (WSW) 21:59:33 437.325/437.525
TIGRISAT 28 Nov 21:53:02 21:56:26 21° 94° (E) 21:59:53 435.000
AIST 2 28 Nov 21:55:45 21:56:55 11° 324° (NW) 21:58:05 435.215
DANDE 28 Nov 21:56:59 21:58:56 12° 71° (ENE) 22:01:04 436.750
DX 1 28 Nov 22:01:27 22:04:42 20° 266° (W) 22:07:58 434.975-435.025
UWE-3 28 Nov 22:04:15 22:08:00 31° 263° (W) 22:11:43 435.000/436.395/437.385
UNISAT 6 28 Nov 22:08:01 22:12:01 31° 97° (E) 22:16:04 437.425
CUBEBUG 2 28 Nov 22:11:05 22:14:28 23° 265° (W) 22:17:50 437.445
POLYITAN 1 28 Nov 22:19:27 22:23:03 27° 96° (E) 22:26:38 437.675
QB50P2 28 Nov 22:20:10 22:23:48 27° 96° (E) 22:27:24 145.880/145.840
DUCHIFAT 1 28 Nov 22:24:02 22:27:44 29° 96° (E) 22:31:25 145.980
TISAT 1 28 Nov 22:29:22 22:32:44 23° 67° (ENE) 22:36:05 437.305
ZACube-1 28 Nov 22:33:16 22:36:09 18° 267° (W) 22:39:03 437.345
ANTELSAT 28 Nov 22:36:50 22:41:18 64° 101° (E) 22:45:51 437.575/2403.000
NANOSAT C BR1 28 Nov 22:43:42 22:47:49 49° 100° (E) 22:51:54 145.865
VELOX 1 28 Nov 22:44:50 22:48:23 23° 265° (W) 22:51:56 145.980
BUGSAT 1 28 Nov 22:48:12 22:52:07 44° 99° (E) 22:55:58 437.445
SPROUT 28 Nov 22:48:34 22:52:24 32° 70° (ENE) 22:56:15 437.525
MaSat-1 28 Nov 22:53:14 22:54:03 11° 56° (NE) 22:54:51 437.345
ESTCUBE 1 28 Nov 22:53:43 22:58:06 48° 261° (W) 23:02:32 437.505/2401.250
QB50P1 28 Nov 22:54:00 22:58:13 66° 102° (ESE) 23:02:24 145.935-145.965
50 SAT 28 Nov 22:55:36 22:58:29 19° 266° (W) 23:01:23 437.505
CUSAT 1 28 Nov 22:57:41 23:02:33 52° 79° (E) 23:09:01 437.405
RS-15 28 Nov 23:01:56 23:12:22 42° 41° (NE) 23:23:08 29.354- 29.394
ITUPSAT 1 28 Nov 23:09:49 23:11:13 11° 59° (ENE) 23:12:37 437.325
CUBEBUG 1 28 Nov 23:13:34 23:17:28 30° 264° (W) 23:21:24 437.445
ISS 28 Nov 23:14:12 23:17:17 37° 332° (NNW) 23:20:22 145.825
AISAT 28 Nov 23:15:38 23:16:58 11° 270° (W) 23:18:18 437.250
SWISSCUBE 28 Nov 23:18:01 23:20:43 15° 62° (ENE) 23:23:24 437.505
POPSAT HIP 1 28 Nov 23:19:18 23:23:29 64° 286° (WNW) 23:27:39 437.405
TIGRISAT 28 Nov 23:29:11 23:33:16 37° 289° (WNW) 23:37:26 435.000
DANDE 28 Nov 23:37:39 23:42:30 85° 261° (W) 23:49:06 436.750
UNISAT 6 28 Nov 23:45:00 23:48:41 26° 292° (WNW) 23:52:26 437.425
AUBIESAT-1 28 Nov 23:45:12 23:49:06 38° 64° (ENE) 23:53:18 437.475
BEESAT 28 Nov 23:46:53 23:50:49 26° 66° (ENE) 23:54:47 436.000
M-CUBED/EXP-1 PRIME 28 Nov 23:52:34 23:56:36 49° 67° (ENE) 00:01:00 437.505
POLYITAN 1 28 Nov 23:55:25 23:58:56 26° 292° (WNW) 00:02:26 437.675
QB50P2 28 Nov 23:56:09 23:59:38 25° 292° (WNW) 00:03:07 145.880/145.840
DUCHIFAT 1 29 Nov 00:00:07 00:03:29 24° 292° (WNW) 00:06:50 145.980
TISAT 1 29 Nov 00:04:38 00:08:25 31° 263° (W) 00:12:12 437.305
ANTELSAT 29 Nov 00:15:23 00:17:36 14° 297° (WNW) 00:19:51 437.575/2403.000
NANOSAT C BR1 29 Nov 00:20:54 00:23:18 15° 296° (WNW) 00:25:41 145.865
BUGSAT 1 29 Nov 00:24:53 00:27:15 15° 296° (WNW) 00:29:36 437.445
SPROUT 29 Nov 00:25:10 00:28:32 22° 266° (W) 00:31:55 437.525
MaSat-1 29 Nov 00:26:50 00:28:25 16° 250° (WSW) 00:30:02 437.345
QB50P1 29 Nov 00:32:04 00:33:34 12° 298° (WNW) 00:35:04 145.935-145.965
CUSAT 1 29 Nov 00:41:39 00:45:36 22° 267° (W) 00:50:20 437.405
Oscar 19 29 Nov 00:43:11 00:47:19 24° 94° (E) 00:51:25 437.125/150
ITUPSAT 1 29 Nov 00:43:32 00:48:21 89° 256° (WSW) 00:53:13 437.325
ISS 29 Nov 00:52:38 00:54:37 15° 352° (N) 00:56:37 145.825
SWISSCUBE 29 Nov 00:53:16 00:58:01 65° 258° (WSW) 01:02:50 437.505
KKS-1 29 Nov 00:58:15 01:02:00 28° 68° (ENE) 01:05:46 437.445
RS-15 29 Nov 01:14:21 01:25:27 67° 244° (WSW) 01:37:03 29.354- 29.394
AUBIESAT-1 29 Nov 01:21:06 01:24:15 21° 263° (W) 01:27:36 437.475
BEESAT 29 Nov 01:24:10 01:28:31 34° 263° (W) 01:32:54 436.000
YUBILEINY 29 Nov 01:29:17 01:37:30 46° 88° (E) 01:45:41 435.215
M-CUBED/EXP-1 PRIME 29 Nov 01:29:28 01:32:00 16° 265° (W) 01:34:41 437.505
ITAMSAT 1 29 Nov 01:43:12 01:47:51 33° 97° (E) 01:52:28 435.822/435.867
STARS 29 Nov 01:46:24 01:50:44 60° 74° (ENE) 01:55:04 437.465
HORYU 2 29 Nov 02:09:30 02:11:29 13° 91° (E) 02:13:28 437.375
Oscar 19 29 Nov 02:21:56 02:26:47 42° 290° (WNW) 02:31:38 437.125/150
ISS 29 Nov 02:30:02 02:32:15 17° 13° (NNE) 02:34:29 145.825
Gurwin Techsat 1B 29 Nov 02:34:19 02:39:34 59° 101° (E) 02:44:47 435.225
KKS-1 29 Nov 02:34:46 02:38:35 28° 264° (W) 02:42:24 437.445
SO-50 29 Nov 02:55:13 02:59:44 86° 122° (ESE) 03:04:25 436.795
AIST 2 29 Nov 02:58:25 03:00:15 12° 38° (NE) 03:02:04 435.215
PCSat 29 Nov 03:20:45 03:25:53 41° 53° (NE) 03:30:58 145.827
ITAMSAT 1 29 Nov 03:22:46 03:27:16 31° 293° (WNW) 03:31:44 435.822/435.867
STARS 29 Nov 03:25:49 03:27:36 12° 269° (W) 03:29:23 437.465
YUBILEINY 29 Nov 03:26:16 03:34:21 40° 288° (WNW) 03:42:28 435.215
BEESAT 3 29 Nov 03:27:27 03:31:22 37° 51° (NE) 03:35:14 437.485
RS-15 29 Nov 03:30:47 03:35:38 14° 264° (W) 03:40:35 29.354- 29.394
HORYU 2 29 Nov 03:44:06 03:48:32 61° 287° (WNW) 03:52:59 437.375
BEESAT 2 29 Nov 03:45:37 03:49:44 50° 54° (NE) 03:53:47 435.950
O/OREOS (USA 219) 29 Nov 03:58:58 04:00:56 13° 98° (E) 04:02:54 437.305
MOZHAYETS 4 29 Nov 04:02:22 04:06:55 68° 75° (ENE) 04:11:32
PRISM 29 Nov 04:03:25 04:05:22 13° 62° (ENE) 04:07:20 437.425
ISS 29 Nov 04:06:12 04:09:27 54° 32° (NNE) 04:12:41 145.825
AO-7 29 Nov 04:07:17 04:15:33 59° 103° (ESE) 04:23:45 29.400- 29.500
Gurwin Techsat 1B 29 Nov 04:15:25 04:19:03 19° 298° (WNW) 04:22:41 435.225
JAS-2 29 Nov 04:25:27 04:31:17 29° 91° (E) 04:36:32 435.910
STRAND 1 29 Nov 04:33:37 04:36:03 14° 59° (ENE) 04:38:29 437.568
AIST 2 29 Nov 04:35:16 04:39:36 80° 57° (ENE) 04:43:51 435.215
SO-50 29 Nov 04:38:10 04:40:57 16° 322° (NW) 04:43:47 436.795
PCSat 29 Nov 05:04:29 05:09:07 29° 251° (WSW) 05:13:43 145.827
BEESAT 3 29 Nov 05:06:09 05:09:22 22° 248° (WSW) 05:12:33 437.485
BEESAT 2 29 Nov 05:25:04 05:27:36 16° 250° (WSW) 05:30:08 435.950
CUTE-I 29 Nov 05:29:21 05:33:33 23° 94° (E) 05:37:44 437.470
O/OREOS (USA 219) 29 Nov 05:35:21 05:39:46 59° 295° (WNW) 05:44:13 437.305
PRISM 29 Nov 05:36:15 05:40:24 59° 259° (W) 05:44:37 437.425
MOZHAYETS 4 29 Nov 05:42:56 05:44:37 12° 271° (W) 05:46:18
ISS 29 Nov 05:43:32 05:45:49 18° 228° (SW) 05:48:05 145.825
CUBESAT XI-V 29 Nov 05:53:27 05:58:09 73° 75° (ENE) 06:02:52 437.345
AO-7 29 Nov 06:00:41 06:07:53 34° 302° (WNW) 06:15:06 29.400- 29.500
AIST 1 29 Nov 06:08:07 06:12:28 63° 80° (E) 06:16:45
STRAND 1 29 Nov 06:09:23 06:14:32 82° 256° (WSW) 06:19:43 437.568
JAS-2 29 Nov 06:10:00 06:16:37 47° 293° (WNW) 06:22:27 435.910
Cubesat XI-IV 29 Nov 06:28:07 06:33:29 83° 104° (ESE) 06:38:47 437.490
CUTE-I 29 Nov 07:08:47 07:13:48 44° 290° (WNW) 07:18:48 437.470
GONETS M04 29 Nov 07:19:46 07:28:09 52° 89° (E) 07:36:36
CUBESAT XI-V 29 Nov 07:34:33 07:36:05 11° 271° (W) 07:37:37 437.345
AIST 1 29 Nov 07:48:36 07:49:30 11° 277° (W) 07:50:23
CANX-2 29 Nov 07:55:41 07:58:13 15° 92° (E) 08:00:45 2200.000
Cubesat XI-IV 29 Nov 08:10:12 08:12:51 14° 301° (WNW) 08:15:29 437.490
HO-68 29 Nov 08:25:00 08:31:40 40° 98° (E) 08:38:15 435.675
GOMX 1 29 Nov 08:26:55 08:30:08 21° 95° (E) 08:33:26 467.674
CUTE 1.7 + AOD 2 29 Nov 08:28:46 08:32:39 32° 97° (E) 08:36:31 437.475
TIGRISAT 29 Nov 08:52:59 08:55:56 19° 66° (ENE) 08:58:53 435.000
DELFI C3 29 Nov 08:54:14 08:56:53 16° 92° (E) 08:59:32 145.870
SEEDS 29 Nov 08:56:53 09:01:07 58° 100° (E) 09:05:20 437.485
DOVE 4 29 Nov 09:05:24 09:09:25 41° 99° (E) 09:13:34 437.250
AAUSAT CUBESAT 2 29 Nov 09:06:19 09:10:30 55° 100° (E) 09:14:39 437.432
UNISAT 6 29 Nov 09:07:57 09:11:33 27° 68° (ENE) 09:15:09 437.425
UKube-1 29 Nov 09:09:49 09:13:22 24° 95° (E) 09:16:54 .
BRITE-PL 29 Nov 09:13:19 09:17:29 83° 283° (WNW) 09:21:45 437.365/2234.400
POLYITAN 1 29 Nov 09:13:32 09:16:48 22° 67° (ENE) 09:20:04 437.675
QB50P2 29 Nov 09:14:01 09:17:19 22° 67° (ENE) 09:20:37 145.880/145.840
CINEMA 3 29 Nov 09:14:31 09:18:22 32° 97° (E) 09:22:19 145.822/145.860
GONETS M04 29 Nov 09:17:20 09:25:13 36° 289° (WNW) 09:33:12
DUCHIFAT 1 29 Nov 09:17:29 09:20:52 24° 68° (ENE) 09:24:15 145.980
Oscar 11 29 Nov 09:17:57 09:22:00 36° 98° (E) 09:26:01 145.826/435.025
FUNcube-1 29 Nov 09:19:13 09:21:59 17° 93° (E) 09:24:45 145.935
COMPASS 1 29 Nov 09:24:10 09:28:26 81° 284° (WNW) 09:32:41 437.405
AISAT 29 Nov 09:28:38 09:30:39 13° 91° (E) 09:32:40 437.250
CANX-2 29 Nov 09:30:16 09:34:24 46° 287° (WNW) 09:38:31 2200.000
ANTELSAT 29 Nov 09:36:29 09:40:39 55° 73° (ENE) 09:44:50 437.575/2403.000
NANOSAT C BR1 29 Nov 09:36:53 09:40:49 38° 71° (ENE) 09:44:45 145.865
HUMSAT D 29 Nov 09:37:11 09:39:42 15° 92° (E) 09:42:13 437.325/437.525
BUGSAT 1 29 Nov 09:38:43 09:42:31 33° 70° (ENE) 09:46:19 437.445
QB50P1 29 Nov 09:47:07 09:51:14 50° 73° (ENE) 09:55:20 145.935-145.965
SO-50 29 Nov 09:47:29 09:50:11 15° 37° (NE) 09:52:53 436.795
DX 1 29 Nov 09:48:33 09:52:54 68° 102° (ESE) 09:57:12 434.975-435.025
UWE-3 29 Nov 09:53:34 09:57:42 47° 99° (E) 10:01:56 435.000/436.395/437.385
CUBEBUG 2 29 Nov 10:00:59 10:05:15 67° 102° (ESE) 10:09:38 437.445
GOMX 1 29 Nov 10:04:38 10:08:20 31° 289° (WNW) 10:12:08 467.674
CUTE 1.7 + AOD 2 29 Nov 10:05:03 10:08:24 23° 293° (WNW) 10:11:45 437.475
POPSAT HIP 1 29 Nov 10:12:17 10:16:33 84° 257° (WSW) 10:20:49 437.405
HO-68 29 Nov 10:12:44 10:19:19 41° 296° (WNW) 10:25:53 435.675
ZACube-1 29 Nov 10:20:16 10:24:33 81° 102° (ESE) 10:28:55 437.345
TIGRISAT 29 Nov 10:28:27 10:32:25 38° 262° (W) 10:36:24 435.000
DELFI C3 29 Nov 10:28:29 10:32:22 40° 288° (WNW) 10:36:13 145.870
SEEDS 29 Nov 10:34:23 10:36:28 13° 297° (WNW) 10:38:32 437.485
VELOX 1 29 Nov 10:34:37 10:39:02 68° 102° (ESE) 10:43:25 145.980
50 SAT 29 Nov 10:35:05 10:39:07 57° 101° (E) 10:43:09 437.505
AAUSAT CUBESAT 2 29 Nov 10:43:33 10:45:43 14° 296° (WNW) 10:47:53 437.432
DOVE 4 29 Nov 10:44:11 10:46:56 17° 294° (WNW) 10:49:44 437.250
UNISAT 6 29 Nov 10:44:45 10:48:18 25° 265° (W) 10:51:53 437.425
UKube-1 29 Nov 10:45:45 10:49:32 30° 292° (WNW) 10:53:17 .
ESTCUBE 1 29 Nov 10:46:43 10:50:53 35° 97° (E) 10:55:00 437.505/2401.250
POLYITAN 1 29 Nov 10:48:46 10:52:35 32° 263° (W) 10:56:24 437.675
QB50P2 29 Nov 10:49:16 10:53:04 32° 263° (W) 10:56:53 145.880/145.840
CINEMA 3 29 Nov 10:52:07 10:55:26 22° 292° (WNW) 10:58:50 145.822/145.860
DUCHIFAT 1 29 Nov 10:52:53 10:56:37 29° 263° (W) 11:00:21 145.980
FUNcube-1 29 Nov 10:54:29 10:58:31 42° 288° (WNW) 11:02:37 145.935
Oscar 11 29 Nov 10:54:42 10:57:55 21° 294° (WNW) 11:01:08 145.826/435.025
CUBEBUG 1 29 Nov 11:02:13 11:06:27 48° 100° (E) 11:10:38 437.445
AISAT 29 Nov 11:03:18 11:07:39 58° 287° (WNW) 11:11:58 437.250
HUMSAT D 29 Nov 11:11:44 11:15:43 44° 288° (WNW) 11:19:44 437.325/437.525
NANOSAT C BR1 29 Nov 11:13:55 11:16:51 18° 267° (W) 11:19:47 145.865
BUGSAT 1 29 Nov 11:14:52 11:18:05 21° 266° (W) 11:21:17 437.445
ANTELSAT 29 Nov 11:16:03 11:17:49 12° 270° (W) 11:19:36 437.575/2403.000
QB50P1 29 Nov 11:25:12 11:27:24 14° 269° (W) 11:29:37 145.935-145.965
DX 1 29 Nov 11:26:53 11:28:34 12° 299° (WNW) 11:30:16 434.975-435.025
